TIME,DELAY(SENSOR),PRES,T(CTD),SAL,OXYGEN,RAWTEMP,T(OPTODE),TCPHASE,FLUOR,BETA(BETA700),BETA(BETA412),BETA(BETA440),CDOM,C(CSC),ED(ED411.90),ED(ED443.80),ED(ED489.40),ED(ED554.70),LU(LU412.20),LU(LU443.80),LU(LU489.40),LU(LU555.00),COMP,TILTX,TILTX(TILTY),CHECK
1344006646,5800,494.3299865722656000,17.2542991638183600,36.4196014404296900,227.8668060302734400,194.0160980224609400,17.2637004852294920,32.1863708496093750,50,106,99,83,68,15404,2147485229,2147764141,2147561856,2147796608,2147310418,2147480950,2147710875,2148245174,1949,7,13,9191
1344006761,5805,483.3299865722656000,17.3759002685546880,36.4430007934570300,229.7758026123047000,190.3190002441406200,17.3761806488037100,32.0405616760253900,50,107,99,83,67,15399,2147483200,2147768201,2147561426,2147796333,2147315574,2147478518,2147710765,2148247625,2401,7,12,61182
1344006876,5804,472.4400024414062500,17.4482002258300780,36.4572982788085940,230.9963989257812500,187.9575042724609400,17.4480304718017580,31.9479103088378900,50,107,98,84,67,15400,2147486518,2147770706,2147559350,2147795273,2147314541,2147475629,2147709732,2148244635,2448,7,12,37031
1344006993,5802,461.4599914550781000,17.5256996154785160,36.4715995788574200,232.4024047851562500,185.4207000732422000,17.5252304077148440,31.8438606262207030,50,108,100,84,67,15399,2147486070,2147765101,2147557293,2147797705,2147315465,2147479844,2147708626,2148247789,3165,7,12,12019
1344007120,5804,449.6499938964844000,17.6035995483398440,36.4856986999511700,232.7881011962890600,182.8258972167968800,17.6041908264160160,31.7897796630859380,49,108,99,83,68,15398,2147482889,2147766756,2147561344,2147794916,2147314166,2147476406,2147705316,2148247213,2725,7,13,59701
1344007249,5804,437.7399902343750000,17.6767005920410160,36.5001983642578100,234.6325073242187500,180.4972991943359400,17.6750602722167970,31.6686801910400400,50,107,98,85,66,15400,2147484105,2147763986,2147560192,2147795474,2147320219,2147480731,2147707501,2148246125,3359,7,12,9904
1344007364,5802,427.1099853515625000,17.7357006072998050,36.5106010437011700,234.9597015380859400,178.4893951416015600,17.7361698150634770,31.6258506774902340,50,108,99,83,66,15397,2147484324,2147766637,2147558098,2147795547,2147309467,2147477632,2147706075,2148242157,315,8,13,64298
1344007479,5805,416.5400085449219000,17.7928009033203120,36.5206985473632800,235.9219970703125000,176.7129974365234400,17.7902507781982420,31.5551891326904300,49,106,99,84,66,15396,2147486226,2147765229,2147560137,2147793773,2147313152,2147481581,2147710473,2148243995,595,7,13,35957
1344007608,5804,404.6900024414062500,17.8621997833251950,36.5335998535156250,236.8574981689453000,174.3549041748047000,17.8620395660400400,31.4787006378173830,50,106,99,84,67,15400,2147485046,2147767387,2147560658,2147795748,2147314688,2147482093,2147706258,2148246290,462,7,12,46661
1344007723,5805,394.0700073242187500,17.9139003753662100,36.5423011779785160,237.7046966552734400,172.7779998779297000,17.9100494384765620,31.4173202514648440,50,105,99,83,67,15400,2147482130,2147769380,2147557613,2147796297,2147318308,2147480091,2147706313,2148243145,860,7,13,55980
1344007838,5801,383.5000000000000000,17.9570999145507800,36.5499000549316400,237.8619995117187500,171.2866058349609400,17.9554500579834000,31.3897209167480470,50,107,99,83,65,15398,2147487076,2147766509,2147559478,2147795392,2147310528,2147476891,2147708909,2148241334,1269,7,12,8565
1344007956,5801,372.7200012207031000,17.9874000549316400,36.5541992187500000,237.9615936279297000,170.2501983642578000,17.9870090484619140,31.3710308074951170,50,108,98,82,66,15399,2147488292,2147763547,2147561828,2147793078,2147303588,2147483273,2147707200,2148240274,1331,7,13,64906
1344008071,5802,362.2799987792969000,18.0272006988525400,36.5586013793945300,237.6417999267578000,169.0677032470703000,18.0230197906494140,31.3700904846191400,50,110,98,83,67,15400,2147485083,2147765558,2147563657,2147793974,2147306057,2147478912,2147708525,2148242029,1343,7,12,24083
1344008200,5801,350.9599914550781000,18.0725002288818360,36.5646018981933600,237.1186981201172000,167.5431976318359400,18.0694503784179700,31.3744792938232420,50,106,100,84,66,15399,2147488347,2147766070,2147566518,2147796708,2147310171,2147474596,2147708790,2148238848,1246,7,13,25906
1344008327,5804,340.1000061035156000,18.1170997619628900,36.5693016052246100,236.6105957031250000,165.9582977294922000,18.1177196502685550,31.3774299621582030,50,106,100,83,67,15399,2147488347,2147765403,2147569590,2147791250,2147301046,2147480420,2147713636,2148239387,1224,7,12,11228
1344008454,5803,329.7300109863281000,18.1585998535156250,36.5746002197265600,235.9729003906250000,164.6374053955078000,18.1579494476318360,31.3904590606689450,50,108,100,83,67,15395,2147490413,2147769289,2147573046,2147791707,2147305901,2147479853,2147717120,2148241536,1715,7,13,31133
1344008596,5803,318.3800048828125000,18.1881008148193360,36.5764007568359400,235.3087005615234400,163.6483001708984400,18.1880798339843750,31.4086799621582030,50,108,99,84,67,15394,2147488237,2147771190,2147578742,2147794633,2147313325,2147484425,2147716699,2148242715,2047,7,13,21415
1344008735,5800,307.5700073242187500,18.2534008026123050,36.5831985473632800,234.5834960937500000,161.6641998291015600,18.2485198974609380,31.4169597625732420,49,109,99,85,65,15392,2147488100,2147771693,2147586267,2147793179,2147309659,2147484041,2147719506,2148240100,3078,7,12,22216
1344008881,5804,294.7000122070312500,18.3194999694824220,36.5886001586914060,234.1434936523437500,159.4075012207031200,18.3172702789306640,31.4080295562744140,50,109,98,84,66,15391,2147488548,2147772068,2147595958,2147793600,2147310162,2147486646,2147726400,2148239917,3196,7,12,2212
1344008984,5804,284.3099975585937500,18.4048004150390620,36.5993003845214840,233.4779968261718800,156.6360015869140600,18.4017200469970700,31.4026508331298830,50,110,100,85,67,15388,2147489161,2147775387,2147609755,2147791314,2147314880,2147489938,2147738715,2148242294,130,7,12,64744
1344009099,5802,272.6000061035156000,18.4794006347656250,36.6016998291015600,231.3899993896484400,153.5823059082031200,18.4947891235351560,31.4631996154785160,50,110,99,84,66,15390,2147494400,2147783332,2147623597,2147791689,2147306304,2147487232,2147742683,2148241856,638,8,12,40672
1344009205,5803,261.7799987792969000,18.5960006713867200,36.6043014526367200,230.0063934326172000,150.3108978271484400,18.5945091247558600,31.4873504638671880,50,110,100,83,67,15388,2147493686,2147792777,2147650816,2147790793,2147308443,2147500781,2147760658,2148238756,1420,7,12,310
1344009308,5802,251.3699951171875000,18.7220993041992200,36.6136016845703100,228.6725006103515600,145.8583068847656200,18.7302703857421880,31.4933605194091800,50,111,100,84,66,15383,2147492800,2147803026,2147682953,2147792201,2147307849,2147508205,2147775707,2148242203,1618,7,12,47589
1344009423,5801,240.1100006103515600,18.8022994995117200,36.6082000732421900,229.8264007568359400,143.6911010742187500,18.7963695526123050,31.4075107574462900,51,113,99,84,67,15386,2147492361,2147819693,2147732745,2147789376,2147311222,2147517357,2147803776,2148246070,1792,8,12,51273
1344009541,5802,228.9400024414062500,18.8045997619628900,36.5852012634277340,233.5513000488281200,143.1221008300781200,18.8137207031250000,31.2188301086425780,50,110,99,84,66,15389,2147496768,2147844690,2147796699,2147790756,2147306468,2147528384,2147842907,2148245037,1950,7,12,44010
1344009656,5805,218.4799957275390600,18.9584999084472660,36.6057014465332000,235.3636932373047000,138.8486022949218800,18.9440898895263670,31.0752391815185550,53,112,99,84,66,15387,2147496996,2147876041,2147881005,2147789888,2147306093,2147556224,2147884416,2148248210,2693,7,12,19611
1344009785,5802,207.2200012207031200,19.1732006072998050,36.6213989257812500,234.3860015869140600,131.4143066406250000,19.1709804534912100,31.0235900878906250,58,112,99,84,65,15383,2147508205,2147928649,2148007058,2147794322,2147302345,2147582500,2147956681,2148252534,3386,7,12,816
1344009900,5805,197.6100006103515600,19.2331008911132800,36.5965995788574200,240.4181976318359400,129.3515014648437500,19.2339591979980470,30.7126197814941400,53,111,101,84,64,15383,2147516864,2147995318,2148157485,2147787309,2147320713,2147624585,2148034057,2148256923,126,7,12,46675
1344009955,5803,193.1600036621093800,19.2551002502441400,36.6012001037597660,244.7050018310547000,128.4721984863281200,19.2608108520507800,30.5045299530029300,53,111,100,83,65,15385,2147524324,2148034368,2148234916,2147793289,2147328091,2147650386,2148085385,2148257097,374,7,12,19491
1344010010,5806,188.8399963378906200,19.2773990631103500,36.6030006408691400,246.6040039062500000,127.8901977539062500,19.2785892486572270,30.4113197326660160,55,112,100,85,65,15381,2147533120,2148070912,2148324763,2147790482,2147325440,2147675739,2148133357,2148261028,221,7,12,24774
1344010065,5802,184.4400024414062500,19.2830009460449220,36.5999984741210940,247.4093933105468800,127.5055999755859400,19.2903308868408200,30.3700695037841800,56,114,99,86,64,15383,2147541568,2148114934,2148427190,2147790052,2147331648,2147708608,2148191085,2148267126,3527,8,12,16611
1344010140,5805,178.7799987792968800,19.2782001495361330,36.5872993469238300,249.2978973388672000,127.8387985229492200,19.2801609039306640,30.2903709411621100,56,117,99,85,64,15378,2147556690,2148189705,2148584091,2147793325,2147343232,2147751890,2148279844,2148271149,26,7,12,34384
1344010195,5803,174.9199981689453000,19.2865009307861330,36.5830993652343750,251.5558013916015600,127.6927032470703100,19.2846202850341800,30.1887397766113280,56,115,99,85,64,15376,2147566308,2148242989,2148698925,2147791259,2147344594,2147788827,2148346358,2148273828,79,8,12,5044
1344010250,5806,171.0599975585937500,19.2912998199462900,36.5819015502929700,252.6394042968750000,127.6070022583007800,19.2872390747070300,30.1403293609619140,57,116,100,86,64,15377,2147582674,2148312466,2148843254,2147793682,2147353408,2147835593,2148432502,2148280612,405,7,12,41085
1344010305,5804,167.2700042724609400,19.2821006774902340,36.5770988464355500,253.6286926269531200,127.7507019042968800,19.2828502655029300,30.0992908477783200,57,120,99,86,63,15376,2147601444,2148382052,2148993097,2147792228,2147358006,2147880100,2148516169,2148283264,170,7,12,41449
1344010372,5804,162.6000061035156200,19.3076000213623050,36.5775985717773440,254.3318939208984400,126.9739990234375000,19.3065700531005860,30.0586891174316400,63,120,101,86,63,15323,2147627757,2148480109,2149198006,2147797513,2147375652,2147946020,2148641453,2148293906,312,7,13,42328
1344010450,5806,157.5700073242187500,19.3269996643066400,36.5783004760742200,254.8446044921875000,126.4095993041992200,19.3237991333007800,30.0292091369628900,67,123,100,85,64,15363,2147661622,2148607890,2149460617,2147798820,2147389385,2148024822,2148787264,2148302363,596,7,12,63096
1344010505,5802,154.5200042724609400,19.3313007354736330,36.5760993957519500,254.9407958984375000,126.2033004760742200,19.3301105499267580,30.0224208831787100,68,127,100,86,63,15357,2147691776,2148706477,2149667465,2147799716,2147403986,2148085019,2148896082,2148308790,808,7,12,31235
1344010584,5802,150.1100006103515600,19.3379993438720700,36.5726013183593750,254.9938964843750000,125.9929962158203100,19.3365306854248050,30.0174808502197270,75,127,100,87,63,15353,2147740132,2148882038,2150005686,2147800402,2147426413,2148183936,2149069165,2148320960,960,7,12,46415
1344010651,5802,146.3600006103515600,19.3535995483398440,36.5709991455078100,254.7801971435547000,125.4850997924804700,19.3520393371582030,30.0199108123779300,85,130,103,86,63,15344,2147800402,2149069284,2150357440,2147803876,2147452973,2148272877,2149232667,2148332251,1030,7,12,1885
1344010718,5804,142.4900054931640600,19.3785991668701170,36.5731010437011700,254.7171936035156200,124.7384033203125000,19.3748493194580080,30.0128803253173830,89,127,100,87,64,15336,2147867574,2149291410,2150772416,2147807524,2147477110,2148376393,2149413476,2148345755,1073,7,12,30317
1344010788,5803,138.4100036621093800,19.4036998748779300,36.5760002136230500,254.6652984619140600,123.9278030395507800,19.3996105194091800,30.0048103332519530,94,130,101,86,64,15334,2147968950,2149598308,2151332763,2147813184,2147520237,2148500425,2149648155,2148365915,1194,7,13,22786
1344010855,5804,134.3800048828125000,19.4169006347656250,36.5727005004882800,254.5052032470703000,123.5141983032226600,19.4122390747070300,30.0062999725341800,99,135,102,88,65,15327,2148074825,2149929216,2151961609,2147820745,2147567396,2148646262,2149910098,2148382921,1131,7,12,11642
1344010922,5800,130.3500061035156200,19.4263992309570300,36.5740013122558600,254.3977050781250000,123.0566024780273400,19.4262294769287100,30.0051002502441400,100,136,102,87,65,15323,2148214939,2150321517,2152660708,2147832009,2147608804,2148811273,2150211840,2148406336,1160,7,12,59893
1344010989,5800,126.3399963378906200,19.4375991821289060,36.5746994018554700,254.4866943359375000,122.5753021240234400,19.4409294128417970,29.9948997497558600,102,134,101,88,65,15323,2148402358,2150824073,2153546093,2147844452,2147680475,2149021540,2150570468,2148435401,1309,7,12,51458
1344011056,5804,122.3600006103515600,19.4927005767822270,36.5848007202148440,254.5807952880859400,121.0807037353515600,19.4866008758544920,29.9715194702148440,104,129,103,87,63,15326,2148644160,2151456384,2154611401,2147860918,2147776320,2149283474,2150999168,2148470180,1307,7,12,43581
1344011126,5804,118.2399978637695300,19.5275001525878900,36.5885009765625000,254.8430023193359400,119.8678970336914000,19.5236606597900400,29.9445705413818360,111,129,102,87,64,15317,2148975524,2152250011,2155893421,2147883949,2147893275,2149607826,2151523072,2148515492,1522,7,12,37442
1344011193,5804,114.3700027465820300,19.5662002563476560,36.5928001403808600,255.3074035644531200,118.6101989746093800,19.5620899200439450,29.9083194732666000,118,129,100,87,63,15312,2149365074,2153192676,2157395876,2147913206,2148035638,2149965906,2152081088,2148565979,1706,7,13,38966
1344011260,5803,110.5899963378906200,19.6208992004394530,36.5970001220703100,255.9051971435547000,116.9246978759765600,19.6136207580566400,29.8611793518066400,125,129,101,87,65,15302,2149885494,2154391716,2159232128,2147952548,2148208438,2150404150,2152732132,2148625572,1765,7,12,47853
1344011315,5802,107.5599975585937500,19.6401004791259770,36.5988006591796900,256.7839050292969000,116.1867980957031200,19.6361694335937500,29.8140201568603500,127,127,102,86,66,15301,2150441718,2155601819,2160990656,2147993188,2148386825,2150805732,2153346843,2148690020,1889,7,12,19453
1344011394,5803,103.2200012207031200,19.7094001770019530,36.5997009277343750,258.5880126953125000,113.9235000610351600,19.7053699493408200,29.7082805633544920,128,131,103,88,66,15281,2151390043,2157581988,2163756617,2148068214,2148676196,2151457673,2154292507,2148785874,2191,7,13,2086
1344011464,5803,99.4199981689453100,19.7590999603271500,36.5989990234375000,260.7001037597656000,112.3630981445312500,19.7530803680419920,29.5994796752929700,124,130,101,87,66,15280,2152524964,2159886052,2166868928,2148158208,2149027373,2152244214,2155429723,2148899748,2079,7,13,58437
1344011519,5804,96.5599975585937500,19.8211002349853500,36.6053009033203100,262.5022888183594000,110.2416992187500000,19.8179607391357420,29.4971599578857420,124,132,102,87,66,15272,2153659437,2162041517,2169581869,2148248557,2149386834,2152956653,2156414363,2149005376,2084,7,13,28737
1344011574,5803,93.8099975585937500,19.9074001312255860,36.6148986816406250,262.9294128417969000,107.8115005493164000,19.8923091888427730,29.4486408233642580,117,129,103,89,66,15270,2154919195,2164349101,2172333184,2148344374,2149813366,2153813659,2157541531,2149133174,2117,8,13,26378
1344011629,5804,91.3199996948242200,19.9939002990722660,36.6236000061035160,262.9018859863281000,105.0259017944336000,19.9775505065917970,29.4141407012939450,104,130,102,88,67,15269,2156078848,2166320210,2174541284,2148435382,2150221741,2154623213,2158543030,2149236873,2420,7,12,36159
1344011684,5805,89.0500030517578100,20.0112991333007800,36.6218986511230500,263.8338012695312500,104.1326980590820300,20.0048809051513670,29.3642902374267580,99,128,102,87,64,15273,2157739218,2169261266,2177977545,2148572178,2150777782,2155682944,2159819821,2149379117,2893,7,12,18726
1344011739,5804,86.8000030517578100,20.0491008758544920,36.6268005371093750,264.6546936035156000,102.7857971191406200,20.0461101531982420,29.3135395050048830,100,129,101,87,65,15276,2159445540,2172015606,2181100169,2148719744,2151426733,2156877394,2161248740,2149543113,2288,7,13,63599
1344011797,5805,84.4000015258789000,20.1273002624511720,36.6330986022949200,265.1614990234375000,100.4003982543945300,20.1191406250000000,29.2624092102050780,95,129,103,88,66,15272,2161655323,2175475849,2184850240,2148915565,2152273627,2158424173,2163093494,2149750107,1685,7,12,63919
1344011852,5802,82.0699996948242200,20.1473999023437500,36.6288986206054700,266.0732116699219000,99.3930969238281200,20.1499805450439450,29.2124195098876950,91,134,103,88,62,15273,2164105764,2179263497,2188954066,2149125659,2153248283,2160145673,2165022564,2149972150,1761,7,13,1595
1344011907,5805,79.6399993896484400,20.1979007720947270,36.6349983215332000,267.6809997558594000,98.0182037353515600,20.1920890808105470,29.1298904418945300,89,133,103,88,63,15272,2166284370,2182336100,2192032420,2149351680,2154193993,2161717357,2166774171,2150173147,1786,7,13,17658
1344011962,5805,77.1900024414062500,20.2521991729736330,36.6375007629394500,268.9052124023437500,96.1373977661132800,20.2496891021728500,29.0568294525146500,90,133,104,88,63,15271,2169388498,2187004626,2197246966,2149692589,2155477211,2163890102,2169214756,2150457408,1500,7,13,57143
1344012017,5800,74.7600021362304700,20.3836002349853500,36.6435012817382800,270.0003967285156000,92.2777404785156200,20.3679504394531250,28.9643707275390620,86,132,104,89,66,15268,2172384630,2191210358,2201662107,2150037632,2156758134,2165935488,2171421248,2150728384,1453,7,13,22701
1344012072,5802,72.6600036621093800,20.4634990692138670,36.6464004516601560,271.3897094726562500,90.3647766113281200,20.4265804290771500,28.8848991394042970,84,132,105,88,61,15260,2175079826,2194846994,2205454281,2150384868,2157977673,2167879606,2173491446,2150967323,1563,7,13,52153
1344012130,5802,70.9700012207031200,20.5305004119873050,36.6529006958007800,271.8269042968750000,88.1809692382812500,20.4935302734375000,28.8401794433593750,81,134,104,88,61,15256,2177594861,2198061238,2208494720,2150718299,2159099209,2169542308,2175058249,2151158381,2153,7,13,13121
1344012197,5804,69.3899993896484400,20.5764007568359380,36.6579017639160160,272.8698120117187500,85.7865982055664000,20.5669593811035160,28.7688808441162100,81,131,105,90,62,15252,2180956809,2202638738,2213143524,2151033033,2160468489,2171577042,2177009142,2151389604,2740,7,13,2128
1344012288,5802,67.4899978637695300,20.6383991241455080,36.6626014709472660,274.2638854980469000,83.6147918701171900,20.6335697174072270,28.6870594024658200,80,136,106,89,60,15241,2185136841,2207990052,2218579611,2151546669,2162484653,2174530496,2179868278,2151733558,2647,7,13,15508
1344012391,5803,65.5000000000000000,20.7766990661621100,36.6713981628418000,274.9079895019531000,80.0019836425781200,20.7444305419921880,28.6169395446777340,79,134,104,90,61,15234,2189493494,2213206473,2223540196,2152170084,2164762331,2177836717,2183158619,2152178395,2223,7,13,6894
1344012490,5802,63.1599998474121100,20.7175006866455080,36.5974998474121100,277.1167907714844000,80.4819335937500000,20.7297000885009770,28.5371799468994140,77,138,105,89,62,15224,2196683392,2221827355,2232056594,2153120640,2168432338,2182986395,2188053019,2152808896,1833,7,13,61517
1344012557,5802,61.2999992370605500,20.7733001708984380,36.5978012084960940,278.0643920898437500,79.1771469116211000,20.7697505950927730,28.4844398498535160,76,140,106,90,59,15207,2202430208,2228287040,2238072091,2153798939,2171501293,2187106797,2191760228,2153295716,1392,7,13,33013
1344012648,5804,59.3300018310546900,20.8822002410888670,36.5853004455566400,278.4367980957031000,76.1134185791015600,20.8638000488281250,28.4320392608642580,76,142,106,92,60,15200,2211986468,2239481188,2248569197,2154927698,2175964909,2193068708,2197009142,2153981677,1059,7,13,4928
1344012775,5803,57.1599998474121100,21.0811004638671880,36.5830993652343750,278.5292968750000000,68.3289031982421900,21.1029491424560550,28.3320198059082030,70,145,107,92,59,15188,2224178596,2251311762,2257339309,2156137956,2182229248,2200576228,2202854464,2154806646,151,8,12,3633
1344012842,5803,55.3400001525878900,21.3080997467041000,36.5840988159179700,281.2377929687500000,63.3139610290527340,21.2571506500244140,28.1669292449951170,67,143,107,93,59,15198,2232767652,2259512182,2263905965,2157150537,2188393837,2208205540,2209446134,2155651254,276,7,13,4107
1344012996,5804,52.2200012207031250,21.5300006866455080,36.5634994506835940,282.7090148925781000,54.7749290466308600,21.5199508666992200,28.0066890716552730,65,145,107,93,59,15194,2252813458,2280644690,2284384384,2160260114,2200621558,2222282678,2221043712,2157336292,794,7,13,61940
1344013075,5806,50.3800010681152340,21.6315002441406250,36.5481986999511700,283.6426086425781000,51.0456809997558600,21.6348209381103500,27.9259891510009770,63,143,108,93,59,15191,2261812644,2289091748,2291554514,2162063195,2206292187,2228582921,2225540086,2158068992,118,7,12,20446
1344013120,5803,48.8199996948242200,21.8355007171630860,36.5461997985839840,283.2569885253906000,44.8628616333007800,21.8254108428955080,27.8647804260253900,62,137,108,90,59,15189,2266327104,2291591451,2292307968,2162836973,2211789412,2234881910,2230681581,2158715958,3088,6,13,20198
1344013189,5800,46.8499984741210940,21.9335002899169920,36.5401992797851560,283.1466064453125000,41.3110389709472660,21.9349708557128900,27.8255100250244140,62,140,107,92,58,15190,2280266432,2305543003,2305763538,2165486473,2220816091,2244165220,2238397385,2160063780,2073,7,12,3907
1344013306,5805,44.9599990844726560,22.2385005950927730,36.5535011291503900,282.3875122070312500,32.7267608642578100,22.2000293731689450,27.7492904663085940,61,140,108,94,57,15188,2291623725,2314682066,2313104438,2167416804,2232355428,2255763172,2246719350,2161384594,1746,8,12,47715
1344013435,5803,42.5299987792968750,22.5305995941162100,36.5551986694335940,281.2062072753906000,22.4527702331542970,22.5177402496337900,27.6685504913330080,61,142,109,93,57,15192,2313341147,2336007616,2333933705,2172707072,2250670482,2274606692,2260215414,2163487762,2356,7,12,19635
1344013492,5804,40.8100013732910160,22.7089996337890620,36.5420989990234400,280.7585144042969000,16.3572807312011720,22.7064990997314450,27.6111202239990230,59,141,109,94,62,15190,2323479542,2345120292,2342470674,2175578276,2262646162,2286867428,2270164781,2165262720,2094,6,13,61407
1344013693,5804,38.8499984741210940,23.1268005371093750,36.5243988037109400,277.7752990722656000,1.8995850086212158,23.1550197601318360,27.5483207702636720,59,136,106,93,58,15203,2334566939,2354565549,2352018075,2179804763,2275372443,2298037787,2277617353,2167061366,1247,6,12,4744
1344013786,5804,36.8199996948242200,23.4115009307861330,36.4991989135742200,275.7305908203125000,-6.3514890670776370,23.4115200042724600,27.5258808135986330,58,135,107,91,59,15205,2349697782,2370433581,2368264877,2185379995,2291078473,2312706130,2287484022,2168995712,500,8,12,25979
1344014046,5802,34.7500000000000000,23.9125003814697270,36.4520988464355500,270.4927062988281000,-22.3149890899658200,23.9089508056640620,27.5338497161865230,56,138,104,92,57,15222,2358333339,2375735835,2371749878,2188383414,2312354843,2332238582,2300786102,2171357147,478,7,12,33994
1344014353,5804,32.8699989318847660,24.5599994659423830,36.4029006958007800,263.3617858886719000,-42.5801086425781250,24.5427608489990230,27.5685997009277340,54,138,106,92,56,15229,2368179730,2384032566,2380174518,2194345664,2337764132,2354163282,2315147419,2173996324,421,7,12,17964